Twin Falls, ID

3:29 AM MDT on April 29, 2017 (GMT -0600)
Joslin Field-Magic Valley Regional

Weather History for KTWF - May, 2013

Change the Weather History Date:

Saturday, May 18, 2013

  Actual Average Record
Temperature  
Mean Temperature 58 °F -  
Max Temperature 68 °F 71 °F 91 °F (2008)
Min Temperature 48 °F 43 °F 33 °F (1998)
Degree Days  
Heating Degree Days 7 9  
Month to date heating degree days 118 195  
Since 1 July heating degree days 5570 5993  
Cooling Degree Days 0 1  
Month to date cooling degree days 25 6  
Year to date cooling degree days 25 7  
Growing Degree Days 7 (Base 50)    
Moisture  
Dew Point 37 °F    
Average Humidity 53    
Maximum Humidity 77    
Minimum Humidity 29    
Precipitation  
Precipitation 0.00 in 0.04 in 0.72 in (2015)
Month to date precipitation 0.17 0.79  
Year to date precipitation 2.67 4.76  
Sea Level Pressure  
Sea Level Pressure 29.91 in    
Wind  
Wind Speed 16 mph (WSW)    
Max Wind Speed 25 mph    
Max Gust Speed 37 mph    
Visibility 10 miles    
Events      
T = Trace of Precipitation, MM = Missing Value Source: NWS Daily Summary

Daily Weather History Graph

Daily Weather History Graph

Search for Another Location

Airport or City:

Trip Planner

Search our weather history database for the weather conditions in past years. The results will help you decide how hot, cold, wet, or windy it might be!

Date:

Astronomy

May. 18, 2013 Rise Set
Actual Time 6:12 AM MDT 8:56 PM MDT
Civil Twilight 5:40 AM MDT 9:29 PM MDT
Nautical Twilight 4:59 AM MDT 10:10 PM MDT
Astronomical Twilight 4:12 AM MDT 10:57 PM MDT
Moon 1:55 PM MDT (5/18) 2:16 AM MDT (5/18)
Length of Visible Light 15h 48m
Length of Day
14h 43m
First Quarter, 56% of the Moon is Illuminated
May 18
First Quarter
May 24
Full
May 31
Last Quarter
Jun 8
New
Jun 16
First Quarter

Hourly Weather History & Observations

Time (MDT) Temp. Dew Point Humidity Pressure Visibility Wind Dir Wind Speed Gust Speed Precip Events Conditions
12:53 AM 52.0 °F 42.1 °F 69% 29.86 in 10.0 mi South 10.4 mph - N/A   Clear
1:53 AM 51.1 °F 41.0 °F 68% 29.86 in 10.0 mi SSW 10.4 mph - N/A   Mostly Cloudy
2:53 AM 50.0 °F 41.0 °F 71% 29.86 in 10.0 mi SSW 11.5 mph - N/A   Clear
3:53 AM 51.1 °F 41.0 °F 68% 29.88 in 10.0 mi SW 9.2 mph - N/A   Overcast
4:53 AM 50.0 °F 42.1 °F 74% 29.89 in 10.0 mi SW 12.7 mph - N/A   Overcast
5:53 AM 50.0 °F 42.1 °F 74% 29.89 in 10.0 mi SW 13.8 mph - N/A   Mostly Cloudy
6:53 AM 48.0 °F 41.0 °F 77% 29.92 in 10.0 mi SW 12.7 mph - N/A   Scattered Clouds
7:53 AM 48.0 °F 39.9 °F 74% 29.94 in 10.0 mi SW 15.0 mph - N/A   Mostly Cloudy
8:53 AM 54.0 °F 39.9 °F 59% 29.94 in 10.0 mi WSW 19.6 mph - N/A   Clear
9:53 AM 57.0 °F 39.0 °F 51% 29.95 in 10.0 mi West 24.2 mph 28.8 mph N/A   Clear
10:53 AM 60.1 °F 37.0 °F 42% 29.94 in 10.0 mi WSW 19.6 mph 26.5 mph N/A   Scattered Clouds
11:53 AM 63.0 °F 37.9 °F 40% 29.93 in 10.0 mi West 20.7 mph 27.6 mph N/A   Partly Cloudy
1:53 PM 63.0 °F 34.0 °F 34% 29.93 in 10.0 mi WSW 13.8 mph 24.2 mph N/A   Mostly Cloudy
2:53 PM 64.0 °F 35.1 °F 34% 29.92 in 10.0 mi West 19.6 mph 25.3 mph N/A   Mostly Cloudy
4:53 PM 66.9 °F 34.0 °F 30% 29.89 in 10.0 mi West 21.9 mph 32.2 mph N/A   Clear
5:53 PM 66.0 °F 33.1 °F 29% 29.89 in 10.0 mi West 23.0 mph 29.9 mph N/A   Clear
6:53 PM 64.9 °F 33.1 °F 31% 29.89 in 10.0 mi West 23.0 mph 28.8 mph N/A   Clear
7:53 PM 62.1 °F 33.1 °F 34% 29.91 in 10.0 mi West 16.1 mph - N/A   Clear
8:53 PM 57.0 °F 33.1 °F 40% 29.92 in 10.0 mi West 12.7 mph - N/A   Clear
9:53 PM 53.1 °F 32.0 °F 45% 29.94 in 10.0 mi WSW 11.5 mph - N/A   Clear
10:53 PM 51.1 °F 32.0 °F 48% 29.94 in 10.0 mi SSW 10.4 mph - N/A   Clear
11:53 PM 50.0 °F 30.9 °F 48% 29.92 in 10.0 mi SW 15.0 mph - N/A   Clear